This is the latest recevied weather packets stored in our database for station/object VK3MAK-1. If no packets are shown the sender has not sent any weather packets the latest 10 day(s).
| Time | Temp. | Humidity | Pressure | Rain* | Wind** | Luminosity | Snow |
|---|---|---|---|---|---|---|---|
| 1778119204 | 11.67° C | 78% | 1024.5 hPa | 0 mm | 8.05 m/s, 225° | - | - |
| 1778118603 | 11.67° C | 78% | 1024.5 hPa | 0 mm | 8.05 m/s, 225° | - | - |
| 1778118003 | 11.67° C | 78% | 1024.5 hPa | 0 mm | 8.05 m/s, 225° | - | - |
| 1778117403 | 11.11° C | 84% | 1024.2 hPa | 0 mm | 6.26 m/s, 225° | - | - |
| 1778116803 | 11.11° C | 84% | 1024.2 hPa | 0 mm | 6.26 m/s, 225° | - | - |
| 1778116203 | 11.11° C | 84% | 1024.2 hPa | 0 mm | 6.26 m/s, 225° | - | - |
| 1778115603 | 10.56° C | 80% | 1024.1 hPa | 0 mm | 5.81 m/s, 248° | - | - |
| 1778115003 | 10.56° C | 80% | 1024.1 hPa | 0 mm | 5.81 m/s, 248° | - | - |
| 1778114403 | 10.56° C | 80% | 1024.1 hPa | 0 mm | 5.81 m/s, 248° | - | - |
| 1778113803 | 9.44° C | 83% | 1024.2 hPa | 0 mm | 5.81 m/s, 248° | - | - |
| 1778113203 | 9.44° C | 83% | 1024.2 hPa | 0 mm | 5.81 m/s, 248° | - | - |
| 1778112603 | 9.44° C | 83% | 1024.2 hPa | 0 mm | 5.81 m/s, 248° | - | - |
| 1778112003 | 8.89° C | 79% | 1024.2 hPa | 0 mm | 6.71 m/s, 225° | - | - |
| 1778111403 | 8.89° C | 79% | 1024.2 hPa | 0 mm | 6.71 m/s, 225° | - | - |
| 1778110803 | 10° C | 75% | 1024.1 hPa | 0 mm | 4.47 m/s, 225° | - | - |
| 1778110203 | 7.78° C | 97% | 1024.1 hPa | 0 mm | 4.02 m/s, 225° | - | - |
| 1778109603 | 7.78° C | 97% | 1024.1 hPa | 0 mm | 4.02 m/s, 225° | - | - |
| 1778109004 | 7.78° C | 97% | 1024.1 hPa | 0 mm | 4.02 m/s, 225° | - | - |
| 1778108405 | 6.67° C | 10% | - | 0 mm | 3.13 m/s, 248° | - | - |
| 1778107804 | 6.67° C | 10% | - | 0.51 mm | 3.13 m/s, 248° | - | - |
| 1778107204 | 6.67° C | 10% | - | 0.51 mm | 3.13 m/s, 248° | - | - |
| 1778106603 | 6.67° C | 96% | 1023.5 hPa | 0.51 mm | 6.71 m/s, 225° | - | - |
| 1778106003 | 7.22° C | 86% | 1023.2 hPa | 0 mm | 4.92 m/s, 225° | - | - |
| 1778105403 | 7.22° C | 86% | 1023.2 hPa | 0 mm | 4.92 m/s, 225° | - | - |
| 1778104804 | 6.11° C | 93% | 1022.9 hPa | 0 mm | 2.68 m/s, 248° | - | - |
* Rain latest hour (hover to see other rain measurements)
** Current wind speed in m/s (hover to see current wind gust speed)